TimeHST,TemperatureF,Dew PointF,Humidity,Sea Level PressureIn,VisibilityMPH,Wind Direction,Wind SpeedMPH,Gust SpeedMPH,PrecipitationIn,Events,Conditions,WindDirDegrees,DateUTC
12:54 AM,71.1,62.1,73,30.18,10.0,ENE,18.4,27.6,N/A,,Partly Cloudy,60,2012-03-17 10:54:00
1:54 AM,70.0,61.0,73,30.17,10.0,ENE,15.0,23.0,N/A,,Clear,60,2012-03-17 11:54:00
2:54 AM,71.1,61.0,70,30.15,10.0,NE,16.1,23.0,N/A,,Clear,50,2012-03-17 12:54:00
3:54 AM,70.0,60.1,71,30.14,10.0,NE,16.1,-,N/A,,Partly Cloudy,50,2012-03-17 13:54:00
4:54 AM,70.0,59.0,68,30.15,10.0,NE,10.4,20.7,N/A,,Clear,50,2012-03-17 14:54:00
5:54 AM,70.0,59.0,68,30.16,10.0,NE,17.3,-,N/A,,Clear,40,2012-03-17 15:54:00
6:54 AM,70.0,59.0,68,30.17,10.0,NE,18.4,24.2,N/A,,Clear,50,2012-03-17 16:54:00
7:54 AM,72.0,62.1,71,30.18,10.0,NE,20.7,28.8,N/A,,Scattered Clouds,50,2012-03-17 17:54:00
8:05 AM,72.0,62.1,71,30.18,10.0,NE,20.7,28.8,N/A,,Scattered Clouds,50,2012-03-17 18:05:00
8:54 AM,75.9,61.0,60,30.18,10.0,ENE,19.6,31.1,N/A,,Scattered Clouds,60,2012-03-17 18:54:00
9:54 AM,80.1,59.0,48,30.18,10.0,Variable,5.8,23.0,N/A,,Scattered Clouds,0,2012-03-17 19:54:00
10:54 AM,78.8,64.4,61,30.17,10.0,ENE,23.0,29.9,N/A,,Scattered Clouds,70,2012-03-17 20:54:00
11:54 AM,79.0,66.2,65,30.15,10.0,ENE,20.7,29.9,N/A,,Partly Cloudy,70,2012-03-17 21:54:00
12:54 PM,81.0,64.4,57,30.11,10.0,ENE,23.0,31.1,N/A,,Partly Cloudy,60,2012-03-17 22:54:00
1:54 PM,82.0,61.0,49,30.09,10.0,ENE,24.2,35.7,N/A,,Scattered Clouds,70,2012-03-17 23:54:00
2:54 PM,82.9,60.1,46,30.08,10.0,ENE,20.7,28.8,N/A,,Scattered Clouds,70,2012-03-18 00:54:00
3:54 PM,82.0,59.0,45,30.08,10.0,ENE,20.7,26.5,N/A,,Scattered Clouds,60,2012-03-18 01:54:00
4:54 PM,80.1,61.0,52,30.08,10.0,ENE,21.9,31.1,N/A,,Scattered Clouds,70,2012-03-18 02:54:00
5:54 PM,75.9,61.0,60,30.09,10.0,NE,17.3,26.5,N/A,,Scattered Clouds,50,2012-03-18 03:54:00
6:54 PM,73.0,61.0,66,30.11,10.0,East,15.0,24.2,N/A,,Partly Cloudy,80,2012-03-18 04:54:00
7:54 PM,72.0,64.4,77,30.12,10.0,East,16.1,25.3,N/A,,Clear,90,2012-03-18 05:54:00
8:54 PM,71.1,60.1,68,30.12,10.0,NE,15.0,-,N/A,,Partly Cloudy,40,2012-03-18 06:54:00
9:54 PM,72.0,61.0,68,30.14,10.0,NE,11.5,21.9,N/A,,Partly Cloudy,50,2012-03-18 07:54:00
10:54 PM,72.0,61.0,68,30.12,10.0,East,10.4,18.4,N/A,,Partly Cloudy,80,2012-03-18 08:54:00
11:54 PM,69.1,60.1,73,30.12,10.0,SSE,6.9,-,N/A,,Clear,150,2012-03-18 09:54:00